Regional Weather Roundup
Issued by NWS

Home | Current Version | Previous Version | Text Only | Print | Product List | Glossary On
Versions: 1 2 3 4 5 6 7 8 9 10 11 12 13 14 15 16 17 18 19 20 21 22 23 24 25 26 27 28 29 30 31 32 33 34 35 36 37 38 39 40 41 42 43 44 45 46 47 48 49 50
000
ASUS43 KLSX 240907
RWRMO

WEATHER SUMMARY FOR MISSOURI
NATIONAL WEATHER SERVICE SPRINGFIELD MO
400 AM CDT SUN MAY 24 2015

NOTE: "FAIR" INDICATES FEW OR NO CLOUDS BELOW 12,000 FEET WITH NO
       SIGNIFICANT WEATHER AND/OR OBSTRUCTIONS TO VISIBILITY.
       CURRENT SKY AND/OR WEATHER CONDITIONS ARE NOT AVAILABLE FOR
       CHILLICOTHE AND FARMINGTON.

MOZ001>031-035>038-043-044-053-054-241000-
...NORTHERN AND WESTERN MISSOURI...

CITY           SKY/WX    TMP DP  RH WIND       PRES   REMARKS
KANSAS CTY INT DRIZZLE   62  60  93 SE15      29.88F
KANSAS C DTWN  LGT RAIN  63  59  87 E8        29.87F
LEE`S SUMMIT   LGT RAIN  62  59  90 SE14G22   29.89F
ST JOSEPH      CLOUDY    62  60  93 SE15      29.89F
CHILLICOTHE      N/A     62 N/A N/A SE6       29.98F
KIRKSVILLE     RAIN      60  59  96 SE7       30.06F FOG

$$
MOZ066>068-077>081-088>096-101>105-241000-
...SOUTHWEST MISSOURI...

CITY           SKY/WX    TMP DP  RH WIND       PRES   REMARKS
SPRINGFIELD    CLOUDY    67  58  72 SE16      29.96F
JOPLIN         RAIN      65  64  97 SE13      29.91F FOG

$$
MOZ032>034-039>042-045>050-055>058-069>072-241000-
...CENTRAL MISSOURI...

CITY           SKY/WX    TMP DP  RH WIND       PRES   REMARKS
COLUMBIA       CLOUDY    62  56  80 E9        30.04F
JEFFERSON CITY CLOUDY    67  53  61 E9        30.03S
ROLLA          CLOUDY    63  54  72 SE9       30.04R
SEDALIA        LGT RAIN  61  57  87 SE10      30.00F
WHITEMAN AFB   DRIZZLE   60  58  92 SE8       29.95F
WARRENSBURG    HVY RAIN  61  57  88 E12       29.94F
OSAGE BEACH    CLOUDY    66  54  63 SE7       30.01F

$$
MOZ051-052-059>065-241000-
...EAST CENTRAL MISSOURI...

CITY           SKY/WX    TMP DP  RH WIND       PRES   REMARKS
ST LOUIS INTL  CLOUDY    66  54  65 E7        30.10F
SPIRIT OF STL  CLOUDY    65  55  70 E3        30.08F
ST CHARLES     CLOUDY    66  54  65 E10       30.09F

$$
MOZ072>076-082>087-097>100-106>115-241000-
...SOUTH CENTRAL AND SOUTHEAST MISSOURI...

CITY           SKY/WX    TMP DP  RH WIND       PRES   REMARKS
CAPE GIRARDEAU CLOUDY    66  58  75 SE9       30.11S
FARMINGTON     CLOUDY    63  54  72 S6        30.13S
POPLAR BLUFF   MOCLDY    66  59  78 SE3       30.08F
WEST PLAINS    MOCLDY    65  55  70 SE7       30.07S

$$


USA.gov is the U.S. government's official web portal to all federal, state and local government web resources and services.